Location: Kile Knob Observatory
(38.6083°N, 79.4792°W)
Time: 17:40:08
(UTC-04:00)

Tiangong 2 - Pass Details

Date: 25 May 2019
Orbit: 376 x 389 km, 42.8° (Epoch: 18 June)

Event Time Altitude Azimuth Distance (km) Brightness Sun altitude
Rises 22:56:05 0° 291° (WNW) 2,233 5.8 -22.0°
Reaches altitude 10° 22:58:11 10° 296° (WNW) 1,380 4.7 -22.3°
Enters shadow 23:00:30 41° 325° (NW) 560 2.3 -22.5°
